Location: Schommer Observatory
(40.5200°N, 74.4500°W)
Time: 11:57:07
(UTC-04:00)

ISS - Pass Details

Date: 22 May 2018
Orbit: 402 x 407 km, 51.6° (Epoch: 23 May)

Event Time Altitude Azimuth Distance (km) Brightness Sun altitude
Rises 23:10:42 0° 281° (W) 2,317 0.5 -24.3°
Reaches altitude 10° 23:13:22 10° 305° (NW) 1,458 -0.2 -24.5°
Maximum altitude 23:15:28 16° 345° (NNW) 1,160 -0.6 -24.7°
Drops below altitude 10° 23:17:34 10° 25° (NNE) 1,459 -0.5 -24.9°
Sets 23:20:15 0° 48° (NE) 2,319 0.2 -25.1°
